US 13 & Pinetree Rd, Middletown DE USA current weather conditions

sailwx.info

Wind from 330 at 5 knots gusting 13

Air temperature 8.3° C
Dewpoint 6.3° C

Last reported at 2019-Dec-11 01:50 UTC.
Time now 2019-Dec-11 03:06 UTC

Location: N 39°24' W 075°40'.
View on Google Maps.

See reports from other nearby stations

  
Tides and Currents Weather Stations Pressure Air Temp Water Temp Dewpoint Dewpoint Depression Visibility Wind Speed Wind Dir Waves Ship Positions
date/time (UTC)wind fromknots sea level pressurealtimeterstation pressurevisibilityair tempwater tempwave heightnotes
2019-Dec-11 01:50 330 5 gusting 13 8.3
2019-Dec-11 01:45 300 6 gusting 17 8.6
2019-Dec-11 01:40 280 7 gusting 17 8.6
2019-Dec-11 01:35 020 6 gusting 13 8.6
2019-Dec-11 01:30 015 3 gusting 6 8.8
2019-Dec-11 01:25 330 2 gusting 8 9.0
2019-Dec-11 01:20 335 4 gusting 12 9.1
2019-Dec-11 01:15 280 4 gusting 12 9.2
2019-Dec-11 01:10 295 5 gusting 10 9.3
2019-Dec-11 01:05 9.6
2019-Dec-11 01:00 310 4 gusting 11 9.6
2019-Dec-11 00:55 330 3 gusting 10 9.8
2019-Dec-11 00:50 330 5 gusting 10 10.1
2019-Dec-11 00:45 305 3 gusting 8 10.1
2019-Dec-11 00:40 290 3 gusting 7 10.1
2019-Dec-11 00:35 315 3 gusting 5 10.1
2019-Dec-11 00:30 330 2 gusting 7 10.1
2019-Dec-11 00:25 350 3 gusting 7 10.2
2019-Dec-11 00:20 335 1 gusting 5 10.2
2019-Dec-11 00:15 345 3 gusting 7 10.2
2019-Dec-11 00:10 325 3 gusting 7 10.3
2019-Dec-11 00:05 330 4 gusting 7 10.4
2019-Dec-11 00:00 315 4 gusting 11 10.6
2019-Dec-10 23:55 10.8
2019-Dec-10 23:50 295 2 gusting 12 11.1
2019-Dec-10 23:45 345 5 gusting 12 11.2
2019-Dec-10 23:40 340 4 gusting 8 11.3
2019-Dec-10 23:35 320 3 gusting 7 11.6
2019-Dec-10 23:30 320 1 gusting 7 11.7
2019-Dec-10 23:25 320 3 gusting 9 11.8
2019-Dec-10 23:20 315 4 gusting 10 11.8
2019-Dec-10 23:15 285 5 gusting 10 12.1
2019-Dec-10 23:10 325 6 gusting 12 12.2
2019-Dec-10 23:05 265 4 gusting 12 12.6
2019-Dec-10 23:00 270 3 gusting 8 12.7
2019-Dec-10 22:55 280 3 gusting 6 12.7
2019-Dec-10 22:50 280 2 gusting 5 12.7
2019-Dec-10 22:45 270 2 gusting 6 12.8
2019-Dec-10 22:40 300 1 gusting 6 12.8
2019-Dec-10 22:35 305 1 gusting 6 12.8
2019-Dec-10 22:30 280 1 gusting 5 12.8
2019-Dec-10 22:25 265 1 gusting 5 12.8
2019-Dec-10 22:20 270 3 gusting 5 12.8
2019-Dec-10 22:15 295 2 gusting 6 12.8
2019-Dec-10 22:10 290 3 gusting 10 12.9
2019-Dec-10 22:05 270 4 gusting 10 13.1
2019-Dec-10 22:00 295 2 gusting 8 13.1
2019-Dec-10 21:55 310 5 gusting 9 13.2
2019-Dec-10 21:50 300 4 gusting 9 13.2
2019-Dec-10 21:45 290 3 gusting 18 13.3
2019-Dec-10 21:40 305 5 gusting 18 13.6
2019-Dec-10 21:35 330 3 gusting 9 13.7
2019-Dec-10 21:30 280 3 gusting 8 13.7
2019-Dec-10 21:25 285 4 gusting 11 13.8
2019-Dec-10 21:20 305 4 gusting 11 13.8
2019-Dec-10 21:15 305 3 gusting 9 13.8
2019-Dec-10 21:10 310 4 gusting 9 13.8
2019-Dec-10 21:05 265 2 gusting 9 13.8
2019-Dec-10 21:00 285 5 gusting 9 13.8
2019-Dec-10 20:55 260 5 gusting 7 13.8
2019-Dec-10 20:50 255 2 gusting 7 13.9
2019-Dec-10 20:45 290 2 gusting 7 13.9
2019-Dec-10 20:40 260 2 gusting 7 13.9
2019-Dec-10 20:35 285 3 gusting 5 13.9
2019-Dec-10 20:30 250 2 gusting 5 13.9
2019-Dec-10 20:25 285 2 gusting 6 14.1
2019-Dec-10 20:20 305 3 gusting 6 14.1
2019-Dec-10 20:15 295 2 gusting 6 14.2
2019-Dec-10 20:10 300 2 gusting 6 14.2
2019-Dec-10 20:05 265 2 gusting 5 14.2
2019-Dec-10 20:00 295 2 gusting 8 14.2
2019-Dec-10 19:55 270 3 gusting 8 14.2
2019-Dec-10 19:50 270 5 gusting 7 14.2
2019-Dec-10 19:45 235 4 gusting 6 14.2
2019-Dec-10 19:40 265 3 gusting 6 14.2
2019-Dec-10 19:35 255 4 gusting 8 14.2
2019-Dec-10 19:30 255 5 gusting 8 14.2
2019-Dec-10 19:25 260 4 gusting 6 14.2
2019-Dec-10 19:20 270 4 gusting 5 14.2
2019-Dec-10 19:15 245 3 gusting 6 14.2
2019-Dec-10 19:10 265 4 gusting 7 14.3
2019-Dec-10 19:05 250 4 gusting 7 14.3
2019-Dec-10 19:00 260 3 gusting 8 14.3
2019-Dec-10 18:55 260 3 gusting 10 14.4
2019-Dec-10 18:50 250 4 gusting 10 14.4
2019-Dec-10 18:45 265 4 gusting 10 14.6
2019-Dec-10 18:40 265 2 gusting 8 14.4
2019-Dec-10 18:35 255 4 gusting 8 14.4
2019-Dec-10 18:30 260 3 gusting 7 14.3
2019-Dec-10 18:25 280 3 gusting 6 14.4
2019-Dec-10 18:20 260 3 gusting 7 14.6
2019-Dec-10 18:15 270 3 gusting 7 14.6
2019-Dec-10 18:10 285 3 gusting 7 14.7
2019-Dec-10 18:05 250 3 gusting 8 14.7
2019-Dec-10 18:00 270 5 gusting 9 14.8
2019-Dec-10 17:55 265 4 gusting 7 14.8
2019-Dec-10 17:50 265 4 gusting 10 14.8
2019-Dec-10 17:45 260 6 gusting 11 14.8
2019-Dec-10 17:40 260 6 gusting 11 14.9
2019-Dec-10 17:35 260 6 gusting 9 15.1
2019-Dec-10 17:30 260 6 gusting 13 15.1
2019-Dec-10 17:25 265 6 gusting 13 15.2
2019-Dec-10 17:20 260 7 gusting 13 15.1
2019-Dec-10 17:15 255 5 gusting 12 15.1
2019-Dec-10 17:10 260 7 gusting 13 15.1
2019-Dec-10 17:05 260 7 gusting 13 15.1
2019-Dec-10 17:00 245 6 gusting 12 15.1
2019-Dec-10 16:55 240 5 gusting 12 15.1
2019-Dec-10 16:50 240 5 gusting 15 15.1
2019-Dec-10 16:45 250 6 gusting 15 15.1
2019-Dec-10 16:40 265 5 gusting 10 15.1
2019-Dec-10 16:35 245 5 gusting 13 15.2
2019-Dec-10 16:30 235 7 gusting 13 15.1
2019-Dec-10 16:25 250 7 gusting 11 15.1
2019-Dec-10 16:20 250 6 gusting 11 15.1
2019-Dec-10 16:15 235 6 gusting 11 15.1
2019-Dec-10 16:10 245 5 gusting 9 14.9
2019-Dec-10 16:05 255 3 gusting 10 15.1
2019-Dec-10 16:00 225 5 gusting 12 15.2
2019-Dec-10 15:55 235 6 gusting 12 15.2
2019-Dec-10 15:50 245 6 gusting 16 15.4
2019-Dec-10 15:45 245 9 gusting 16 15.4
2019-Dec-10 15:40 250 8 gusting 15 15.4
2019-Dec-10 15:35 235 8 gusting 15 15.6
2019-Dec-10 15:30 245 5 gusting 18 15.7
2019-Dec-10 15:25 240 11 gusting 18 15.8
2019-Dec-10 15:20 245 7 gusting 14 15.7
2019-Dec-10 15:15 245 7 gusting 13 15.7
2019-Dec-10 15:10 255 7 gusting 14 15.6
2019-Dec-10 15:05 250 8 gusting 14 15.7
2019-Dec-10 15:00 235 5 gusting 16 15.7
2019-Dec-10 14:55 235 9 gusting 16 15.6
2019-Dec-10 14:50 225 7 gusting 15 15.6
2019-Dec-10 14:45 250 5 gusting 16 15.4
2019-Dec-10 14:40 260 6 gusting 13 15.4
2019-Dec-10 14:35 250 8 gusting 13 15.3
2019-Dec-10 14:30 225 7 gusting 11 15.3
2019-Dec-10 14:25 235 6 gusting 11 15.2
2019-Dec-10 14:20 245 7 gusting 16 15.2
2019-Dec-10 14:15 265 8 gusting 16 15.2
2019-Dec-10 14:10 245 9 gusting 16 15.2
2019-Dec-10 14:05 225 4 gusting 13 15.2
2019-Dec-10 14:00 240 7 gusting 13 15.2
2019-Dec-10 13:55 245 5 gusting 12 15.1
2019-Dec-10 13:50 240 5 gusting 11 14.9
2019-Dec-10 13:45 245 5 gusting 12 14.9
2019-Dec-10 13:40 240 7 gusting 12 14.9
2019-Dec-10 13:35 230 4 gusting 15 14.9
2019-Dec-10 13:30 240 9 gusting 15 14.8
2019-Dec-10 13:25 225 4 gusting 15 14.8
2019-Dec-10 13:20 210 5 gusting 13 14.8
2019-Dec-10 13:15 230 5 gusting 13 14.8
2019-Dec-10 13:10 230 6 gusting 13 14.8
2019-Dec-10 13:05 225 4 gusting 11 14.8
2019-Dec-10 13:00 235 4 gusting 15 14.8
2019-Dec-10 12:55 250 9 gusting 15 14.8
2019-Dec-10 12:50 235 6 gusting 15 14.8
2019-Dec-10 12:45 240 7 gusting 13 14.8
2019-Dec-10 12:40 245 6 gusting 13 14.8
2019-Dec-10 12:35 225 7 gusting 13 14.8
2019-Dec-10 12:30 240 6 gusting 17 14.8
2019-Dec-10 12:25 210 8 gusting 17 14.8
2019-Dec-10 12:20 210 7 gusting 15 14.7
2019-Dec-10 12:15 235 7 gusting 13 14.7
2019-Dec-10 12:10 230 5 gusting 13 14.6
2019-Dec-10 12:05 245 5 gusting 14 14.7
2019-Dec-10 12:00 240 5 gusting 14 14.7
2019-Dec-10 11:55 220 5 gusting 14 14.6
2019-Dec-10 11:50 250 6 gusting 14 14.7
2019-Dec-10 11:45 235 4 gusting 14 14.6
2019-Dec-10 11:40 235 4 gusting 15 14.6
2019-Dec-10 11:35 240 7 gusting 14 14.6
2019-Dec-10 11:30 235 5 gusting 13 14.6
2019-Dec-10 11:25 255 6 gusting 13 14.4
2019-Dec-10 11:20 235 4 gusting 15 14.4
2019-Dec-10 11:15 245 7 gusting 15 14.4
2019-Dec-10 11:10 265 6 gusting 16 14.4
2019-Dec-10 11:05 235 7 gusting 16 14.6
2019-Dec-10 11:00 235 8 gusting 13 14.4
2019-Dec-10 10:55 230 6 gusting 12 14.3
2019-Dec-10 10:50 245 6 gusting 16 14.2
2019-Dec-10 10:45 235 8 gusting 16 14.3
2019-Dec-10 10:40 240 9 gusting 14 14.2
2019-Dec-10 10:35 225 8 gusting 14 14.3
2019-Dec-10 10:30 230 7 gusting 17 14.3
2019-Dec-10 10:25 250 7 gusting 17 14.3
2019-Dec-10 10:20 245 9 gusting 15 14.2
2019-Dec-10 10:15 255 6 gusting 15 14.2
2019-Dec-10 10:10 245 10 gusting 15 14.2
2019-Dec-10 10:05 240 9 gusting 15 14.2
2019-Dec-10 10:00 220 9 gusting 14 14.2
2019-Dec-10 09:55 230 7 gusting 16 14.2
2019-Dec-10 09:50 245 9 gusting 16 14.2
2019-Dec-10 09:45 250 8 gusting 17 14.2
2019-Dec-10 09:40 245 6 gusting 20 14.1
2019-Dec-10 09:35 230 5 gusting 20 13.9
2019-Dec-10 09:30 225 6 gusting 13 14.1
2019-Dec-10 09:25 250 6 gusting 18 14.1
2019-Dec-10 09:20 240 9 gusting 18 14.1
2019-Dec-10 09:15 240 6 gusting 13 13.9
2019-Dec-10 09:10 245 6 gusting 15 13.9
2019-Dec-10 09:05 245 6 gusting 15 13.8
2019-Dec-10 09:00 240 8 gusting 13 13.8
2019-Dec-10 08:55 225 5 gusting 13 13.8
2019-Dec-10 08:50 230 6 gusting 16 13.8
2019-Dec-10 08:45 245 9 gusting 16 13.8
2019-Dec-10 08:40 250 8 gusting 16 13.7
2019-Dec-10 08:35 250 8 gusting 16 13.8
2019-Dec-10 08:30 230 6 gusting 16 13.7
2019-Dec-10 08:25 235 7 gusting 14 13.7
2019-Dec-10 08:20 240 8 gusting 15 13.8
2019-Dec-10 08:15 225 6 gusting 19 13.8
2019-Dec-10 08:10 240 9 gusting 19 13.8
2019-Dec-10 08:05 220 6 gusting 14 13.8
2019-Dec-10 08:00 230 8 gusting 14 13.8
2019-Dec-10 07:55 220 7 gusting 14 13.8
2019-Dec-10 07:50 245 7 gusting 17 13.8
2019-Dec-10 07:45 250 8 gusting 17 13.8
2019-Dec-10 07:40 250 7 gusting 13 13.8
2019-Dec-10 07:35 240 4 gusting 14 13.7
2019-Dec-10 07:30 235 7 gusting 14 13.8
2019-Dec-10 07:25 255 6 gusting 17 13.8
2019-Dec-10 07:20 250 8 gusting 17 13.9
2019-Dec-10 07:15 250 8 gusting 14 13.8
2019-Dec-10 07:10 210 7 gusting 15 13.8
2019-Dec-10 07:05 230 9 gusting 21 13.8
2019-Dec-10 07:00 230 11 gusting 21 13.9
2019-Dec-10 06:55 235 9 gusting 13 13.9
2019-Dec-10 06:50 230 6 gusting 21 13.9
2019-Dec-10 06:45 240 8 gusting 21 14.1
2019-Dec-10 06:40 230 7 gusting 17 13.9
2019-Dec-10 06:35 225 6 gusting 17 14.1
2019-Dec-10 06:30 250 9 gusting 17 13.9
2019-Dec-10 06:25 245 8 gusting 19 14.1
2019-Dec-10 06:20 220 7 gusting 17 14.1
2019-Dec-10 06:15 255 8 gusting 24 14.1
2019-Dec-10 06:10 230 9 gusting 24 14.2
2019-Dec-10 06:05 210 9 gusting 23 14.2
2019-Dec-10 06:00 250 9 gusting 20 14.2
2019-Dec-10 05:55 235 11 gusting 23 14.2
2019-Dec-10 05:50 250 9 gusting 18 14.2
2019-Dec-10 05:45 245 10 gusting 18 14.2
2019-Dec-10 05:40 245 9 gusting 21 14.2
2019-Dec-10 05:35 255 10 gusting 21 14.2
2019-Dec-10 05:30 235 10 gusting 18 14.2
2019-Dec-10 05:25 245 10 gusting 18 14.3
2019-Dec-10 05:20 245 10 gusting 19 14.3
2019-Dec-10 05:15 235 10 gusting 20 14.2
2019-Dec-10 05:10 255 8 gusting 20 14.2
2019-Dec-10 05:05 250 6 gusting 14 14.2
2019-Dec-10 05:00 230 6 gusting 14 14.2
2019-Dec-10 04:55 240 8 gusting 17 14.2
2019-Dec-10 04:50 225 9 gusting 19 14.1
2019-Dec-10 04:45 220 8 gusting 19 14.2
2019-Dec-10 04:40 225 8 gusting 18 14.1
2019-Dec-10 04:35 250 8 gusting 16 13.9
2019-Dec-10 04:30 250 8 gusting 20 13.9
2019-Dec-10 04:25 245 10 gusting 20 13.9
2019-Dec-10 04:20 245 9 gusting 20 13.9
2019-Dec-10 04:15 235 8 gusting 20 13.8
2019-Dec-10 04:10 250 5 gusting 16 13.8
2019-Dec-10 04:05 240 9 gusting 19 13.8
2019-Dec-10 04:00 240 7 gusting 19 13.7
2019-Dec-10 03:55 250 8 gusting 19 13.6
2019-Dec-10 03:50 245 8 gusting 19 13.4
2019-Dec-10 03:45 220 7 gusting 14 13.4
2019-Dec-10 03:40 225 7 gusting 21 13.3
2019-Dec-10 03:35 245 7 gusting 23 13.3
2019-Dec-10 03:30 220 6 gusting 23 13.2
2019-Dec-10 03:25 245 9 gusting 19 13.2
2019-Dec-10 03:20 240 6 gusting 16 13.1
2019-Dec-10 03:15 235 10 gusting 17 13.1
2019-Dec-10 03:10 260 8 gusting 17 12.9
2019-Dec-10 03:05 230 5 gusting 14 12.8
2019-Dec-10 03:00 240 7 gusting 14 12.7
2019-Dec-10 02:55 240 8 gusting 14 12.6
2019-Dec-10 02:50 255 6 gusting 14 12.4
2019-Dec-10 02:45 215 7 gusting 15 12.4
2019-Dec-10 02:40 230 8 gusting 15 12.3
2019-Dec-10 02:35 220 7 gusting 14 12.2
2019-Dec-10 02:30 235 4 gusting 14 12.2
2019-Dec-10 02:25 235 4 gusting 10 12.2
2019-Dec-10 02:20 255 5 gusting 15 12.1
2019-Dec-10 02:15 250 9 gusting 18 12.2
2019-Dec-10 02:10 250 6 gusting 18 12.1
2019-Dec-10 02:05 240 11 gusting 17 12.1
2019-Dec-10 02:00 230 7 gusting 14 11.8
2019-Dec-10 01:55 235 6 gusting 14 11.8
2019-Dec-10 01:50 245 6 gusting 14 11.8
2019-Dec-10 01:45 255 7 gusting 14 11.8
2019-Dec-10 01:40 225 6 gusting 13 11.8
2019-Dec-10 01:35 240 8 gusting 13 11.7
2019-Dec-10 01:30 255 4 gusting 11 11.6
2019-Dec-10 01:25 255 6 gusting 12 11.6
2019-Dec-10 01:20 245 6 gusting 13 11.6
2019-Dec-10 01:15 235 4 gusting 13 11.4
2019-Dec-10 01:10 240 6 gusting 13 11.4
2019-Dec-10 01:05 250 5 gusting 11 11.3
2019-Dec-10 01:00 250 5 gusting 12 11.3
2019-Dec-10 00:55 230 7 gusting 12 11.2
2019-Dec-10 00:50 215 6 gusting 12 11.2
2019-Dec-10 00:45 215 6 gusting 13 11.2
2019-Dec-10 00:40 240 8 gusting 13 11.2
2019-Dec-10 00:35 245 7 gusting 12 11.1
2019-Dec-10 00:30 225 5 gusting 11 10.9
2019-Dec-10 00:25 215 6 gusting 12 10.8
2019-Dec-10 00:20 215 4 gusting 12 10.8
2019-Dec-10 00:15 250 5 gusting 11 10.8
2019-Dec-10 00:10 230 6 gusting 10 10.8
2019-Dec-10 00:05 240 2 gusting 9 10.7
2019-Dec-10 00:00 235 3 gusting 7 10.6
2019-Dec-09 23:55 240 3 gusting 6 10.6
2019-Dec-09 23:50 200 2 gusting 6 10.4
2019-Dec-09 23:45 260 4 gusting 6 10.4
2019-Dec-09 23:40 240 2 gusting 4 10.3
2019-Dec-09 23:35 225 1 gusting 4 10.3
2019-Dec-09 23:30 225 2 gusting 4 10.3
2019-Dec-09 23:25 230 1 gusting 5 10.2
2019-Dec-09 23:20 240 3 gusting 5 10.2
2019-Dec-09 23:15 245 2 gusting 4 10.2
2019-Dec-09 23:10 245 1 gusting 4 10.2
2019-Dec-09 23:05 225 1 gusting 4 10.1
2019-Dec-09 23:00 200 1 gusting 4 10.1
2019-Dec-09 22:55 215 0 gusting 7 10.1
2019-Dec-09 22:50 235 4 gusting 7 10.0
2019-Dec-09 22:45 190 3 gusting 6 9.8
2019-Dec-09 22:40 180 3 gusting 6 9.7
2019-Dec-09 22:35 180 3 gusting 5 9.7
2019-Dec-09 22:30 170 2 gusting 4 9.7
2019-Dec-09 22:25 155 1 gusting 3 9.7
2019-Dec-09 22:20 190 2 gusting 3 9.8
2019-Dec-09 22:15 180 0 gusting 3 9.7
2019-Dec-09 22:10 185 1 gusting 3 9.7
2019-Dec-09 22:05 265 1 gusting 3 9.7
2019-Dec-09 22:00 250 1 gusting 4 9.7
2019-Dec-09 21:55 240 1 gusting 4 9.7
2019-Dec-09 21:50 210 2 gusting 4 9.7
2019-Dec-09 21:45 240 1 gusting 4 9.7
2019-Dec-09 21:40 235 2 gusting 3 9.7
2019-Dec-09 21:35 210 0 gusting 2 9.8
2019-Dec-09 21:30 105 0 gusting 2 9.7
2019-Dec-09 21:25 200 1 gusting 2 9.7
2019-Dec-09 21:20 160 1 gusting 2 9.7
2019-Dec-09 21:15 160 0 gusting 2 9.7
2019-Dec-09 21:10 185 2 gusting 2 9.7
2019-Dec-09 21:05 155 1 gusting 2 9.8
2019-Dec-09 21:00 190 0 gusting 2 9.8
2019-Dec-09 20:55 210 1 gusting 2 9.8
2019-Dec-09 20:50 260 0 gusting 2 9.8
2019-Dec-09 20:45 175 9.8
2019-Dec-09 20:40 205 9.7
2019-Dec-09 20:35 140 1 gusting 3 9.7
2019-Dec-09 20:30 185 1 gusting 3 9.7
2019-Dec-09 20:25 195 1 gusting 3 9.7
2019-Dec-09 20:20 305 0 gusting 3 9.8
2019-Dec-09 20:15 295 2 gusting 2 9.8
2019-Dec-09 20:10 255 1 gusting 2 9.8
2019-Dec-09 20:05 270 0 gusting 2 9.8
2019-Dec-09 20:00 255 1 gusting 2 9.8
2019-Dec-09 19:55 235 0 gusting 4 9.8
2019-Dec-09 19:50 245 3 gusting 4 9.8
2019-Dec-09 19:45 245 2 gusting 4 9.8
2019-Dec-09 19:40 190 1 gusting 3 9.8
2019-Dec-09 19:35 175 0 gusting 3 9.8
2019-Dec-09 19:30 220 2 gusting 3 9.7
2019-Dec-09 19:25 250 1 gusting 5 9.8
2019-Dec-09 19:20 220 1 gusting 5 9.7
2019-Dec-09 19:15 215 2 gusting 4 9.7
2019-Dec-09 19:10 230 2 gusting 5 9.7
2019-Dec-09 19:05 195 2 gusting 5 9.7
2019-Dec-09 19:00 185 4 gusting 5 9.7
2019-Dec-09 18:55 180 3 gusting 6 9.6
2019-Dec-09 18:50 205 3 gusting 7 9.6
2019-Dec-09 18:45 185 3 gusting 7 9.6
2019-Dec-09 18:40 190 4 gusting 7 9.6
2019-Dec-09 18:35 200 5 gusting 7 9.6
2019-Dec-09 18:30 190 3 gusting 6 9.6
2019-Dec-09 18:25 205 3 gusting 7 9.6
2019-Dec-09 18:20 235 3 gusting 7 9.7
2019-Dec-09 18:15 225 1 gusting 5 9.6
2019-Dec-09 18:10 230 2 gusting 7 9.6
2019-Dec-09 18:05 230 2 gusting 7 9.6
2019-Dec-09 18:00 260 3 gusting 6 9.6
2019-Dec-09 17:55 265 2 gusting 6 9.6
2019-Dec-09 17:50 255 2 gusting 6 9.6
2019-Dec-09 17:45 250 3 gusting 6 9.6
2019-Dec-09 17:40 210 3 gusting 9 9.6
2019-Dec-09 17:35 245 5 gusting 9 9.6
2019-Dec-09 17:30 230 4 gusting 6 9.5
2019-Dec-09 17:25 230 3 gusting 6 9.5
2019-Dec-09 17:20 220 2 gusting 7 9.5
2019-Dec-09 17:15 240 2 gusting 9 9.3
2019-Dec-09 17:10 245 4 gusting 9 9.2
2019-Dec-09 17:05 255 4 gusting 9 9.2
2019-Dec-09 17:00 235 4 gusting 9 9.2
2019-Dec-09 16:55 230 3 gusting 8 9.2
2019-Dec-09 16:50 205 3 gusting 7 9.1
2019-Dec-09 16:45 200 2 gusting 4 9.1
2019-Dec-09 16:40 230 2 gusting 8 9.1
2019-Dec-09 16:35 240 2 gusting 8 8.8
2019-Dec-09 16:30 270 4 gusting 7 8.8
2019-Dec-09 16:25 260 3 gusting 6 8.8
2019-Dec-09 16:20 265 3 gusting 7 9.0
2019-Dec-09 16:15 250 4 gusting 7 8.8
2019-Dec-09 16:10 255 3 gusting 7 9.0
2019-Dec-09 16:05 260 3 gusting 7 9.0
2019-Dec-09 16:00 260 4 gusting 6 8.8
2019-Dec-09 15:55 245 3 gusting 4 9.0
2019-Dec-09 15:50 250 2 gusting 4 8.8
2019-Dec-09 15:45 245 3 gusting 4 8.6
2019-Dec-09 15:40 190 2 gusting 4 8.7
2019-Dec-09 15:35 265 1 gusting 4 8.6
2019-Dec-09 15:30 200 1 gusting 4 8.6
2019-Dec-09 15:25 220 2 gusting 4 8.6
2019-Dec-09 15:20 240 1 gusting 3 8.5
2019-Dec-09 15:15 195 1 gusting 3 8.5
2019-Dec-09 15:10 250 1 gusting 3 8.6
2019-Dec-09 15:05 250 2 gusting 3 8.3
2019-Dec-09 15:00 265 2 gusting 3 8.5
2019-Dec-09 14:55 175 0 gusting 3 8.5
2019-Dec-09 14:50 265 1 gusting 3 8.3
2019-Dec-09 14:45 185 0 gusting 1 8.2
2019-Dec-09 14:40 190 8.1
2019-Dec-09 14:35 165 0 gusting 2 8.1
2019-Dec-09 14:30 165 1 gusting 2 8.1
2019-Dec-09 14:25 175 8.0
2019-Dec-09 14:20 190 0 gusting 2 8.0
2019-Dec-09 14:15 260 1 gusting 3 7.7
2019-Dec-09 14:10 255 2 gusting 3 7.8
2019-Dec-09 14:05 250 1 gusting 2 7.7
2019-Dec-09 14:00 250 1 gusting 2 7.6
2019-Dec-09 13:55 245 0 gusting 2 7.6
2019-Dec-09 13:50 200 7.6
2019-Dec-09 13:45 190 0 gusting 1 7.6
2019-Dec-09 13:40 255 7.5
2019-Dec-09 13:35 225 7.5
2019-Dec-09 13:30 275 0 gusting 1 7.5
2019-Dec-09 13:25 330 0 gusting 3 7.3
2019-Dec-09 13:20 280 1 gusting 3 7.3
2019-Dec-09 13:15 305 1 gusting 2 7.3
2019-Dec-09 13:10 285 7.3
2019-Dec-09 13:05 315 0 gusting 4 7.2
2019-Dec-09 13:00 265 0 gusting 4 7.1
2019-Dec-09 12:55 300 1 gusting 3 7.1
2019-Dec-09 12:50 280 1 gusting 3 7.1
2019-Dec-09 12:45 250 1 gusting 2 7.1
2019-Dec-09 12:40 270 0 gusting 3 7.1
2019-Dec-09 12:35 235 0 gusting 3 7.1
2019-Dec-09 12:30 285 2 gusting 3 7.1
2019-Dec-09 12:25 300 0 gusting 2 7.1
2019-Dec-09 12:20 275 7.1
2019-Dec-09 12:15 320 7.1
2019-Dec-09 12:10 005 0 gusting 2 7.1
2019-Dec-09 12:05 340 1 gusting 2 7.1
2019-Dec-09 12:00 320 1 gusting 2 7.0
2019-Dec-09 11:55 325 1 gusting 2 7.1
2019-Dec-09 11:50 295 7.1
2019-Dec-09 11:45 200 0 gusting 1 7.1
2019-Dec-09 11:40 330 7.0
2019-Dec-09 11:35 350 0 gusting 4 6.8
2019-Dec-09 11:30 315 1 gusting 4 6.8
2019-Dec-09 11:25 345 3 gusting 4 6.8
2019-Dec-09 11:20 025 0 gusting 7 6.7
2019-Dec-09 11:15 110 3 gusting 7 6.6
2019-Dec-09 11:10 135 4 gusting 7 6.6
2019-Dec-09 11:05 125 3 gusting 6 6.6
2019-Dec-09 11:00 105 3 gusting 5 6.5
2019-Dec-09 10:55 115 3 gusting 5 6.3
2019-Dec-09 10:50 095 3 gusting 5 6.5
2019-Dec-09 10:45 115 2 gusting 4 6.3
2019-Dec-09 10:40 115 3 gusting 3 6.3
2019-Dec-09 10:35 095 1 gusting 3 6.3
2019-Dec-09 10:30 080 0 gusting 3 6.2
2019-Dec-09 10:25 095 1 gusting 3 6.2
2019-Dec-09 10:20 100 2 gusting 3 6.2
2019-Dec-09 10:15 125 1 gusting 3 6.1
2019-Dec-09 10:10 090 1 gusting 3 6.1
2019-Dec-09 10:05 135 1 gusting 2 6.1
2019-Dec-09 10:00 100 0 gusting 2 6.1
2019-Dec-09 09:55 110 1 gusting 3 6.0
2019-Dec-09 09:50 100 2 gusting 3 5.8
2019-Dec-09 09:45 070 1 gusting 2 5.8
2019-Dec-09 09:40 105 1 gusting 2 5.7
2019-Dec-09 09:35 085 0 gusting 2 5.7
2019-Dec-09 09:30 130 0 gusting 1 5.7
2019-Dec-09 09:25 055 5.6
2019-Dec-09 09:20 080 1 gusting 3 5.6
2019-Dec-09 09:15 100 2 gusting 3 5.6
2019-Dec-09 09:10 105 1 gusting 4 5.6
2019-Dec-09 09:05 090 2 gusting 4 5.6
2019-Dec-09 09:00 095 2 gusting 3 5.6
2019-Dec-09 08:55 110 1 gusting 3 5.6
2019-Dec-09 08:50 140 0 gusting 3 5.5
2019-Dec-09 08:45 145 2 gusting 3 5.5
2019-Dec-09 08:40 115 1 gusting 4 5.5
2019-Dec-09 08:35 095 2 gusting 4 5.3
2019-Dec-09 08:30 110 2 gusting 3 5.2
2019-Dec-09 08:25 095 1 gusting 2 5.2
2019-Dec-09 08:20 115 1 gusting 2 5.2
2019-Dec-09 08:15 095 1 gusting 2 5.2
2019-Dec-09 08:10 115 5.1
2019-Dec-09 08:05 095 0 gusting 2 5.1
2019-Dec-09 08:00 095 0 gusting 2 5.1
2019-Dec-09 07:55 100 0 gusting 2 5.1
2019-Dec-09 07:50 095 1 gusting 2 5.1
2019-Dec-09 07:45 095 0 gusting 2 5.1
2019-Dec-09 07:40 080 1 gusting 2 5.1
2019-Dec-09 07:35 095 1 gusting 1 5.1
2019-Dec-09 07:30 070 0 gusting 1 5.1
2019-Dec-09 07:25 090 5.1
2019-Dec-09 07:20 065 5.1
2019-Dec-09 07:15 120 5.1
2019-Dec-09 07:10 120 0 gusting 1 5.1
2019-Dec-09 07:05 135 5.2
2019-Dec-09 07:00 100 5.2
2019-Dec-09 06:55 090 5.2
2019-Dec-09 06:50 080 5.2
2019-Dec-09 06:45 050 5.2
2019-Dec-09 06:40 080 5.1
2019-Dec-09 06:35 080 5.1
2019-Dec-09 06:30 080 5.1
2019-Dec-09 06:25 010 5.1
2019-Dec-09 06:20 080 5.1
2019-Dec-09 06:15 110 5.1
2019-Dec-09 06:10 090 5.1
2019-Dec-09 06:05 095 5.1
2019-Dec-09 06:00 100 5.1
2019-Dec-09 05:55 100 5.1
2019-Dec-09 05:50 105 5.1
2019-Dec-09 05:45 115 5.1
2019-Dec-09 05:40 120 5.1
2019-Dec-09 05:35 125 5.2
2019-Dec-09 05:30 280 5.2
2019-Dec-09 05:25 240 5.2
2019-Dec-09 05:20 155 5.1
2019-Dec-09 05:15 190 5.2
2019-Dec-09 05:10 345 5.2
2019-Dec-09 05:05 340 5.2
2019-Dec-09 05:00 345 5.2
2019-Dec-09 04:55 335 5.3
2019-Dec-09 04:50 260 5.3
2019-Dec-09 04:45 240 5.3
2019-Dec-09 04:40 145 0 gusting 1 5.6
2019-Dec-09 04:35 315 5.6
2019-Dec-09 04:30 295 5.7
2019-Dec-09 04:25 265 5.7
2019-Dec-09 04:20 255 0 gusting 1 5.7
2019-Dec-09 04:15 235 5.7
2019-Dec-09 04:10 220 5.7
2019-Dec-09 04:05 235 5.6
2019-Dec-09 04:00 245 5.6
2019-Dec-09 03:55 250 0 gusting 3 5.6
2019-Dec-09 03:50 230 1 gusting 4 5.7
2019-Dec-09 03:45 210 2 gusting 4 5.8
2019-Dec-09 03:40 190 2 gusting 6 5.8
2019-Dec-09 03:35 185 3 gusting 4 6.0
2019-Dec-09 03:30 190 3 gusting 6 6.1
2019-Dec-09 03:25 205 3 gusting 6 6.1
2019-Dec-09 03:20 200 2 gusting 4 6.1
2019-Dec-09 03:15 195 3 gusting 4 6.0
2019-Dec-09 03:10 190 3 gusting 4 5.8
2019-Dec-09 03:05 190 1 gusting 4 5.8
2019-Dec-09 03:00 190 2 gusting 4 6.0